Ottawa, IL (61350)

10:54 PM CDT on August 29, 2015 (GMT -0500)
LaSalle County Government Complex | | Change Station
CLOSE
Current Station
Personal Weather Station
Location: Ottawa, IL
Elevation: 614 ft
Nearby Weather Stations

Elev 614 ft 41.37 °N, 88.83 °W | Updated 2 minutes ago

Overcast
Overcast
69.5 °F
Feels Like 69.5 °F
N
2.0
Wind Variable Wind from ENE
Gusts 4.0 mph

Today
High -- | Low -- °F
--% Chance of Precip.
Yesterday
High -- | Low -- °F
Precip. -- in
6:18 AM 7:33 PM
Full, 100% visible
Pressure 30.05 in
Visibility 5.0 miles
Clouds Overcast 1500 ft
Dew Point 68 °F
Humidity 94%
Rainfall 0.03 in
Snow Depth Not available.
UV 0 out of 12
Pollen .70 out of 12
Air Quality Not available.
Flu Activity Not available.
METAR KVYS 300335Z AUTO 00000KT 5SM BR OVC015 21/19 A3005 RMK AO2 T02050190
Pressure 30.05 in
Visibility 5.0 miles
Clouds Overcast 1500 ft
Dew Point 68 °F
Humidity 94%
Rainfall 0.03 in
Snow Depth Not available.
UV 0 out of 12
Pollen .70 out of 12
Air Quality Not available.
Flu Activity Not available.
METAR KVYS 300335Z AUTO 00000KT 5SM BR OVC015 21/19 A3005 RMK AO2 T02050190

10-Day Weather Forecast

×

Almanac

Astronomy

Aug. 29, 2015 Rise Set
Actual Time
Civil Twilight
Nautical Twilight
Astronomical Twilight
Moon
Length of Visible Light
Length of Day
Tomorrow will be .
, % of the Moon is Illuminated

Today's Extremes

State Highs State Lows

Community

WunderPhotos

Upload Photos

1,850,870 photos uploaded!

WunderBlogs® & News

Nearby

Air Quality

  Air Quality AQ Index Pollutant
Not available.

Snow Depth

Station Depth Elevation

Earthquake Activity

City Distance Mag. Time & Date
Minimum magnitude displayed is 2.5.

Coastal Water Temperatures

Place Temperature

Stations

Nearby Weather Stations

Station Location Temp. Windchill Dew Point Humidity Wind Precip. Elev Updated Type